Welcome to the New NWS' Forecast!
Most changes are behind the scenes, but click here for differences you might notice.

Regional Weather Roundup (RWR)

Issued by National Weather Service (NWS)

                            
000
ASUS43 KLOT 150504
RWRIL 

ILLINOIS REGIONAL WEATHER ROUNDUP
NATIONAL WEATHER SERVICE CHICAGO/ROMEOVILLE IL
1200 AM CDT WED AUG 15 2018

NOTE: "FAIR" INDICATES FEW OR NO CLOUDS BELOW 12,000 FEET WITH NO
SIGNIFICANT WEATHER AND/OR OBSTRUCTIONS TO VISIBILITY.

* THESE STATIONS ARE NOT UNDER NWS QUALITY CONTROL. THEY ALSO MAY NOT
  REPORT WEATHER SUCH AS PRECIPITATION OR FOG.

ILZ001-002-007-009-015-016-024-150600-
NORTHWEST ILLINOIS
  
CITY           SKY/WX    TMP DP  RH WIND       PRES   REMARKS
MOLINE         FAIR      73  68  84 E3        29.92R                  
STERLING*      FAIR      70  68  93 E6        29.94S                  
SAVANNA*       FAIR      73  66  78 CALM      29.92F                  
$$

ILZ003-004-008-010-011-017-018-150600-
NORTH CENTRAL ILLINOIS
  
CITY           SKY/WX    TMP DP  RH WIND       PRES   REMARKS
ROCKFORD       CLOUDY    71  66  84 S3        29.95F                  
FREEPORT*      FAIR      69  65  89 CALM      29.96S                  
ROCHELLE*      FAIR      68  67  96 SE6       29.95S                  
DE KALB*       FAIR      70  67  90 S6        29.97S                  
PERU*          FAIR      76  69  78 SE8       29.95S                  
$$

ILZ005-006-012>014-019>023-150600-
NORTHEAST ILLINOIS
  
CITY           SKY/WX    TMP DP  RH WIND       PRES   REMARKS
CHICAGO-OHARE  CLOUDY    79  64  60 S8        29.94F HX  81           
CHICAGO-MIDWAY CLOUDY    80  63  55 S7        29.95F HX  81           
AURORA         FAIR      70  66  87 CALM      29.95F                  
LANSING*       FAIR      71  63  76 CALM      29.96F                  
JOLIET*        FAIR      69  66  88 CALM      29.96S                  
WAUKEGAN       FAIR      69  69 100 CALM      29.93F FOG              
DUPAGE AIRPORT FAIR      72  67  84 S6        29.95F                  
KANKAKEE*      FAIR      69  64  84 SE5       29.97S                  
WHEELING       FAIR      76  67  73 S3        29.95F                  
MORRIS*        FAIR      68  66  93 CALM      29.95S                  
ROMEOVILLE*    FAIR      70  64  81 S6        29.96F                  
NORTHERLY ISL    N/A     79  60  52 SW5         N/A  HX  80           
$$

LMZ740>746-150600-
SOUTHERN LAKE MICHIGAN
  
STATION/POSITION SKY/WX   TEMP    WIND        PRES    VSBY  WAVE
                          AIR SEA DIR/SP/G                  HT/PER
                          (F)     (DEG/KT/KT) (MB)    (MI)  (FT/S)
SOUTHERN BUOY              78 77  180/  8/ 10 1013.4F         0
WINTHROP HARBOR            76 77                N/A           0
WAUKEGAN HARBOR            76 77  220/  4       N/A           0
WILMETTE HARBOR            77 77  180/  6/  6   N/A           1
HARRISON CRIB              81     220/ 13/ 14   N/A
NORTHERLY ISL              79     190/  5/  6   N/A
CALUMET HARBOR             78     200/  5/  6 1013.9F
BURNS HARBOR               76                 1014.9F
MICHIGAN CITY              78     170/  9/ 11   N/A
MICHIGAN CITY 6N           77 78  210/  8/ 10   N/A           1
ST. JOSEPH                 77 78  150/  8/ 10 1014.0F         1/ 2
$$

ILZ025>027-034>036-040-047-049-050-058-095>099-150600-
WEST-CENTRAL ILLINOIS
  
CITY           SKY/WX    TMP DP  RH WIND       PRES   REMARKS
QUINCY         CLOUDY    72  70  93 SE5       29.92F                  
GALESBURG*     CLOUDY    73  68  86 E6        29.94R                  
MACOMB*        CLOUDY    72  70  94 S5        29.95S                  
JACKSONVILLE*  CLOUDY    71  69  93 S3        29.93S                  
PITTSFIELD*    MOCLDY    71  70  99 CALM      29.94S                  
$$

ILZ028>032-037-038-041>044-048-051>054-059>061-150600-
CENTRAL ILLINOIS
  
CITY           SKY/WX    TMP DP  RH WIND       PRES   REMARKS
PONTIAC        FAIR      70  70  99 CALM      29.96S                  
BLOOMINGTON    FAIR      72  69  90 S7        29.97S                  
DECATUR        FAIR      74  73  97 SE6       29.96F                  
PEORIA         FAIR      75  71  87 S7        29.93F                  
LACON*         FAIR      74  68  82 SE6       29.93S                  
LINCOLN*       FAIR      73  72  96 CALM      29.94F                  
SPRINGFIELD    FAIR      75  72  90 S6        29.94S                  
TAYLORVILLE    FAIR      73  71  95 SE6       29.95F                  
$$

ILZ033-039-045-046-055>057-062-063-150600-
EAST-CENTRAL ILLINOIS
  
CITY           SKY/WX    TMP DP  RH WIND       PRES   REMARKS
CHAMPAIGN      FAIR      72  71  97 S3        29.97F                  
DANVILLE*      FAIR      70  69  96 SE5       29.95S                  
RANTOUL*       FAIR      73  71  92 CALM      29.97S                  
MATTOON        FAIR      73  69  87 SE5       29.96F                  
PARIS*         FAIR      69  67  93 SE3       29.99S                  
$$

ILZ079-100>102-150600-
SOUTHWEST ILLINOIS
  
CITY           SKY/WX    TMP DP  RH WIND       PRES   REMARKS
ALTON          CLOUDY    71  71 100 CALM      29.95S                  
BELLEVILLE     CLOUDY    74  71  92 S6        29.95R                  
CAHOKIA*       MOCLDY    74  71  91 S3        29.95R                  
SPARTA*        CLOUDY    72  72 100 SW3       29.98S                  
$$

ILZ064>066-069>071-074>076-080>082-084>086-088>090-092>094-150600-
SOUTH-CENTRAL ILLINOIS
  
CITY           SKY/WX    TMP DP  RH WIND       PRES   REMARKS
CARBONDALE     FAIR      69  68  96 S6        29.99R                  
CAIRO*         CLOUDY    71  69  94 CALM      30.00S                  
EFFINGHAM*     FAIR      73  72  98 E3        29.98F                  
MARION         MOCLDY    71  65  82 SW7       30.00R                  
MT. VERNON     FAIR      73  68  84 SW9       29.98S                  
CENTRALIA*     CLOUDY    74  73  97 S5        29.96S                  
SALEM*         FAIR      76  72  87 S6        29.96F                  
METROPOLIS*    MOCLDY    69  69  98 CALM      30.01R                  
$$

ILZ067-068-072-073-078-083-087-091-150600-
SOUTHEAST ILLINOIS
  
CITY           SKY/WX    TMP DP  RH WIND       PRES   REMARKS
LAWRENCEVILLE  FAIR      74  70  87 SE5       29.98S                  
FLORA*         FAIR      74  72  92 SE8       29.97S                  
FAIRFIELD*     FAIR      73  66  78 S6        29.97S                  
HARRISBURG*    MOCLDY    70  67  92 CALM      30.00S                  
ROBINSON*      FAIR      70  70  99 CALM      29.99S                  
$$

ABBREVIATIONS USED IN REMARKS
   TC - TEMPERATURE IN CELSIUS
  WCI - WIND CHILL INDEX
   HX - HEAT INDEX
  VSB - VISIBILITY
$$